Regional Weather Roundup
Issued by NWS

Home | Current Version | Previous Version | Graphics & Text | Print | Product List | Glossary On
Versions: 1 2 3 4 5 6 7 8 9 10 11 12 13 14 15 16 17 18 19 20 21 22 23 24 25 26 27 28 29 30 31 32 33 34 35 36 37 38 39 40 41 42 43 44 45 46 47 48 49 50
000
ASUS43 KMPX 311910
RWRMN
WEATHER ROUNDUP FOR MINNESOTA
NATIONAL WEATHER SERVICE TWIN CITIES/CHANHASSEN MN
200 PM CDT WED AUG 31 2016


NOTE: "FAIR" INDICATES FEW OR NO CLOUDS BELOW 12,000 FEET WITH NO
SIGNIFICANT WEATHER AND/OR OBSTRUCTIONS TO VISIBILITY. N/A MEANS
CURRENT SKY AND/OR WEATHER CONDITIONS ARE NOT AVAILABLE.

MNZ060>063-068>070-312000-
   Twin Cities Metro

CITY           SKY/WX    TMP DP  RH WIND       PRES   REMARKS
TWIN CITIES    MOSUNNY   78  51  38 N9        30.20S
ST PAUL        SUNNY     75  53  46 N8G24     30.20S
CRYSTAL        SUNNY     77  49  37 NE8       30.19S
BLAINE         SUNNY     77  52  41 N8        30.20F
LAKEVILLE      SUNNY     73  54  49 N8        30.20S
EDEN PRAIRIE   SUNNY     77  52  41 NE7       30.19S
LAKEVILLE      SUNNY     73  54  49 N8        30.20S
SOUTH ST PAUL  SUNNY     76  47  34 N7        30.19S
LAKE ELMO      FAIR      73  54  49 N9        30.21S
$$
MNZ001>005-007-008-013>017-022>024-027-028-312000-
   Northwest Minnesota

CITY           SKY/WX    TMP DP  RH WIND       PRES   REMARKS
BEMIDJI        SUNNY     70  54  56 N9        30.25S
HALLOCK        SUNNY     72  54  53 N8        30.26F
ROSEAU         SUNNY     70  55  60 N6        30.27S
WARROAD        CLOUDY    66  55  68 NE8       30.28S
THIEF RVR FALL SUNNY     70  53  54 N7        30.26F
CROOKSTON      SUNNY     73  54  49 N7        30.25F
FOSSTON        SUNNY     72  55  56 N7        30.26F
DETROIT LAKES  SUNNY     72  52  49 N7        30.26S
MOORHEAD       SUNNY     77  46  33 N5        30.23F
PARK RAPIDS    SUNNY     74  49  41 NE7       30.24F
MAHNOMEN       FAIR      73  52  49 NE10      30.24F
$$
MNZ006-009>011-018-025>026-312000-
   North Central Minnesota

CITY           SKY/WX    TMP DP  RH WIND       PRES   REMARKS
BAUDETTE       PTSUNNY   70  56  61 N9        30.26F
FLAG ISLAND    PTSUNNY   64  52  63 CALM      30.26F
INTL FALLS     CLOUDY    68  54  60 VRB5      30.24F
WASKISH        MOSUNNY   72  55  56 NW6       30.24F
BIG FORK       MOSUNNY   70  54  56 N9        30.24F
LONGVILLE      SUNNY     72  54  53 NW5       30.24S
GRAND RAPIDS   PTSUNNY   69  54  58 N12       30.25S
CRANE LAKE     CLOUDY    64  54  68 NW3       30.25S
ORR            PTSUNNY   70  52  52 NW7       30.21F
COOK           PTSUNNY   68  55  64 N5        30.24S
WALKER         FAIR      69  52  54 NE6       30.24S
$$
MNZ012-019>021-037-312000-
   Northeast Minnesota

CITY           SKY/WX    TMP DP  RH WIND       PRES   REMARKS
DULUTH         MOSUNNY   72  51  47 CALM      30.21S
ELY            CLOUDY    66  50  55 N3        30.22S
HIBBING        PTSUNNY   68  52  56 N8        30.22F
EVELETH        PTSUNNY   69  51  51 N8        30.24S
DULUTH HARBOR  SUNNY     75  52  43 CALM      30.20R
TWO HARBORS    MOSUNNY   73  57  56 N5        30.18S
SILVER BAY     CLOUDY    70  55  60 N5        30.19R
GRAND MARAIS     N/A     70  43  37 CALM      30.18R
G MARAIS ARPRT CLOUDY    63  48  59 NW9       30.22S
$$
MNZ029>031-032-039>041-046>048-054>057-064-312000-
   West Central Minnesota

CITY           SKY/WX    TMP DP  RH WIND       PRES   REMARKS
FERGUS FALLS   SUNNY     77  54  44 NE3       30.24R
WHEATON        SUNNY     81  57  44 CALM      30.23S
MORRIS         SUNNY     79  54  41 NW3       30.21F
ALEXANDRIA     SUNNY     76  49  38 N6        30.24F
ELBOW LAKE     FAIR      75  55  49 NE5       30.23S
WADENA         SUNNY     73  54  49 N7        30.23S
GLENWOOD       SUNNY     75  52  43 N7        30.23F
APPLETON       SUNNY     79  54  41 CALM      30.21S
BENSON         SUNNY     79  52  38 E3        30.21F
ORTONVILLE     SUNNY     81  52  36 CALM      30.21F
MADISON        SUNNY     79  55  44 NE3       30.21F
WILLMAR        FAIR      79  54  41 N8        30.23S
$$
MNZ033>034-036-042>043-049>051-058-059-312000-
   Central Minnesota

CITY           SKY/WX    TMP DP  RH WIND       PRES   REMARKS
ST CLOUD       SUNNY     75  54  47 N7        30.21F
SAUK CENTRE    FAIR      75  53  45 NW8       30.22F
PAYNESVILLE    SUNNY     77  49  37 N7        30.23S
AITKIN         SUNNY     75  45  33 N9        30.21S
PINE RIVER     SUNNY     72  52  49 NW7       30.26S
BRAINERD       SUNNY     73  52  47 NW8       30.22F
STAPLES        SUNNY     75  46  35 N8        30.23S
LONG PRAIRIE   FAIR      73  52  46 NW5       30.23F
LITTLE FALLS   SUNNY     73  46  38 N5        30.22F
LITCHFIELD     SUNNY     77  59  53 NW7       30.22F
BUFFALO        SUNNY     75  52  43 NW6       30.22S
MAPLE LAKE     SUNNY     76  58  52 N3        30.22S
HUTCHINSON     SUNNY     76  58  52 NW9       30.22F
$$
MNZ037-044-045-052-053-312000-
   East Central Minnesota

CITY           SKY/WX    TMP DP  RH WIND       PRES   REMARKS
PRINCETON      SUNNY     77  54  44 NW7       30.21S
MORA           SUNNY     73  52  46 NW8       30.22F
CAMBRIDGE      SUNNY     75  55  50 CALM      30.19S
RUSH CITY      SUNNY     75  53  45 NW6       30.21S
MOOSE LAKE     SUNNY     73  48  40 N6        30.19F
HINCKLEY       FAIR      73  52  46 NE3       30.20F
CLOQUET        SUNNY     72  46  40 N7        30.21S
MCGREGOR       SUNNY     73  50  43 NW9       30.22S
$$
MNZ071>073-080-081-089-090-097-098-312000-
   Southwest Minnesota

CITY           SKY/WX    TMP DP  RH WIND       PRES   REMARKS
MONTEVIDEO     SUNNY     79  57  47 E3        30.23F
GRANITE FALLS  SUNNY     79  59  50 N8        30.23S
CANBY          SUNNY     79  53  40 CALM      30.23F
MARSHALL       SUNNY     76  60  57 VRB3      30.22F
REDWOOD FALLS  SUNNY     78  57  48 NW8       30.21F
OLIVIA         SUNNY     77  55  47 NW6       30.21F
WINDOM         SUNNY     75  55  50 N6        30.23S
WORTHINGTON    SUNNY     76  58  53 N5        30.24S
JACKSON        SUNNY     77  55  47 VRB8      30.23F
TRACY          SUNNY     77  60  56 N7        30.23F
SLAYTON        SUNNY     75  59  57 NE6       30.25S
$$
MNZ065>067-074>077-082>085-091>093-312000-
   South Central Minnesota

CITY           SKY/WX    TMP DP  RH WIND       PRES   REMARKS
MANKATO        SUNNY     75  55  49 VRB5      30.21S
NEW ULM        SUNNY     75  54  46 N7        30.21F
ST JAMES       SUNNY     75  55  50 NW8       30.22F
FAIRMONT       SUNNY     77  58  51 N9        30.21F
GLENCOE        SUNNY     76  59  55 NW7       30.21S
FARIBAULT      SUNNY     77  54  44 NW8       30.20F
OWATONNA       SUNNY     75  54  46 N7        30.20S
WASECA         SUNNY     73  57  56 NW7       30.21F
ALBERT LEA     SUNNY     75  55  50 NW7       30.20S
$$
MNZ078>079-086>088-094>096-312000-
   Southeast Minnesota

CITY           SKY/WX    TMP DP  RH WIND       PRES   REMARKS
ROCHESTER      SUNNY     76  52  43 N10       30.19F
RED WING       SUNNY     79  48  34 N8        30.17S
STANTON        SUNNY     77  52  41 N7        30.18F
DODGE CENTER   SUNNY     75  55  50 N10       30.20S
WINONA         SUNNY     77  54  44 NE5       30.17S
AUSTIN         SUNNY     73  54  49 N8        30.19S
PRESTON        SUNNY     73  48  40 N13       30.19S
$$
ABBREVIATIONS USED IN REMARKS
   TC - TEMPERATURES IN CELSIUS
  WCI - WIND CHILL INDEX
   HX - HEAT INDEX
  VSB - VISIBILITY
$$




USA.gov is the U.S. government's official web portal to all federal, state and local government web resources and services.